Regional Weather Roundup
Issued by NWS

Home | Current Version | Previous Version | Graphics & Text | Print | Product List | Glossary On
Versions: 1 2 3 4 5 6 7 8 9 10 11 12 13 14 15 16 17 18 19 20 21 22 23 24 25 26 27 28 29 30 31 32 33 34 35 36 37 38 39 40 41 42 43 44 45 46 47 48 49 50
527
ASUS45 KCYS 230910
RWRWY

WYOMING REGIONAL WEATHER ROUNDUP
NATIONAL WEATHER SERVICE CHEYENNE WY
200 AM MST MON JAN 23 2017

NOTE:  "FAIR" INDICATES FEW OR NO CLOUDS BELOW 12,000 FEET
WITH NO SIGNIFICANT WEATHER AND/OR OBSTRUCTIONS TO VISIBILITY.

WYZ001-231000-
YELLOWSTONE NATIONAL PARK

CITY           SKY/WX    TMP DP  RH WIND       PRES   REMARKS
LK YELLOWSTONE   N/A     15  14  95 CALM      29.63F
W YELLOWSTONE  NOT AVBL

$$
WYZ002>013-054>058-071-098>099-231000-
NORTHERN WYOMING

CITY           SKY/WX    TMP DP  RH WIND       PRES   REMARKS
JACKSON        CLOUDY    19  19 100 CALM      29.66F
CODY           FAIR      20  14  77 CALM      29.62S
GREYBULL       FAIR      15  11  83 NW7       29.65R WCI   5
WORLAND        CLOUDY    24  21  88 CALM      29.63S
SHERIDAN       FAIR      18  15  88 SW9       29.63S WCI   7
BUFFALO        CLOUDY    29  15  56 W6        29.60F WCI  23
GILLETTE       FAIR      30  22  72 S9        29.61F WCI  22
HULETT         FAIR      27  19  74 SE5       29.66F WCI  21
NEWCASTLE      PTSUNNY   32  18  55 SE10      29.69F WCI  24

$$
WYZ014>020-022>026-101>103-231000-
CENTRAL WYOMING

CITY           SKY/WX    TMP DP  RH WIND       PRES   REMARKS
BIG PINEY      LGT SNOW  16  13  88 CALM      29.66F FOG
PINEDALE       LGT SNOW  18  18 100 W6        29.67S WCI   9
DUBOIS         NOT AVBL
LANDER         FAIR      18  12  77 E6        29.62S WCI  10
RIVERTON       MOCLDY    16  12  84 N7        29.63S WCI   6
CASPER         CLOUDY    30  24  78 SW21G30   29.63S WCI  17
DOUGLAS        CLOUDY    28  17  63 CALM      29.66F

$$
WYZ021-027>030-104>119-231000-
SOUTHERN WYOMING

CITY           SKY/WX    TMP DP  RH WIND       PRES   REMARKS
EVANSTON       LGT SNOW  20  16  84 MISG      29.61F VSB 3/4
ROCK SPRINGS   CLOUDY    27  19  72 S10       29.64F WCI  17
RAWLINS        FLURRIES  28  21  75 SW28G36   29.67S WCI  13
LARAMIE        CLOUDY    24  17  74 SE3       29.68F
CHEYENNE       CLOUDY    29  12  49 CALM      29.71S
TORRINGTON     CLOUDY    28  18  66 E8        29.72F WCI  20

$$




USA.gov is the U.S. government's official web portal to all federal, state and local government web resources and services.